Location: Ferintosh
(52.7647°N, 112.9692°W)
Time: 19:43:19
(UTC+00:00)

Explorer 7 - Pass Details

Date: 28 May 2024
Orbit: 466 x 622 km, 50.3° (Epoch: 16 June)

Event Time Altitude Azimuth Distance (km) Brightness Sun altitude
Rises 10:35:32 0° 274° (W) 2,639 9.9 -5.4°
Reaches altitude 10° 10:39:18 10° 237° (WSW) 1,792 8.8 -5.0°
Maximum altitude 10:40:23 11° 222° (SW) 1,746 8.7 -4.9°
Drops below altitude 10° 10:41:29 10° 206° (SSW) 1,816 8.9 -4.8°
Sets 10:45:25 0° 170° (S) 2,755 10.0 -4.4°
